TELKOM 1

Last updated on Dec. 14, 2017, 12:19 a.m. UTC

1 25880U 99042A   17347.06712817 -.00000169  00000-0  00000-0 0  9998
2 25880   0.2163  96.6040 0025713 173.8063 279.2824  1.00249457 67221
UTC
Height (km)
Latitude
Longitude
Inclination
Orbital Period
UTC large
Height (km)
Speed (km/s)
/
Latitude / Longitude
Inclination (degrees)
Orbital Period (minutes)
Azimuth
Elevation
Range (km)
Doppler Factor
iOS Compass Heading
iOS Angle

Next 30 passes for location: Hong Kong

Rise time Rise Azimuth (degrees) Set time Set Azimuth (degrees) Duration Max altitude (degrees)

No matching passes for this satellites